History for Miami, FL

Monday, November 5, 2012 — View Current Conditions

Jump to Data:

Date:
Airport Code:
Recently Viewed Airport Codes: KMIA
Daily Summary
  Actual Average Record
Temperature
Mean Temperature 75°F 76°F  
Max Temperature 81°F 83°F 90°F (1941)
Min Temperature 68°F 70°F 45°F (1910)
Degree Days
Heating Degree Days 0 0  
Month to date heating degree days 0 0  
Since 1 July heating degree days 0 0  
Cooling Degree Days 10 12  
Month to date cooling degree days 35 60  
Year to date cooling degree days 4274 4132  
Growing Degree Days 24 (Base 50)    
Moisture
Dew Point 60°F    
Average Humidity 69    
Maximum Humidity 90    
Minimum Humidity 47    
Precipitation
Precipitation 0.00 in 0.13 in 0.93 in (1998)
Month to date precipitation 0.00 0.69  
Year to date precipitation 85.93 57.28  
Snow
Snow 0.00 in in in ()
Month to date snowfall 0.0  
Since 1 July snowfall 0.0  
Since 1 September snowfall 0.0  
Snow Depth 0.00 in    
Sea Level Pressure
Sea Level Pressure 29.99 in    
Wind
Wind Speed 2 mph (WNW)    
Max Wind Speed 10 mph    
Max Gust Speed 22 mph    
Visibility 10 miles    
Events      
T = Trace of Precipitation, MM = Missing Value Source: NWS Daily Summary

Show full METARS

(help) - Comma Delimited File

Hourly Observations

Time(EST) Temperature Dew Point Humidity Sea Level Pressure Visibility Wind Direction Wind Speed Gust Speed Precipitation Events Conditions
12:53 AM 71.1°F 64.0°F 78% 30.03 in 10.0 miles Calm Calm - N/A   Overcast
1:53 AM 70.0°F 64.0°F 81% 30.02 in 10.0 miles Calm Calm - N/A   Mostly Cloudy
2:53 AM 68.0°F 64.9°F 90% 30.01 in 10.0 miles Calm Calm - N/A   Mostly Cloudy
3:53 AM 70.0°F 66.0°F 87% 30.00 in 10.0 miles Calm Calm - N/A   Mostly Cloudy
4:53 AM 70.0°F 64.0°F 81% 30.01 in 10.0 miles WNW 3.5 mph - N/A   Mostly Cloudy
5:53 AM 70.0°F 63.0°F 78% 30.01 in 10.0 miles Calm Calm - N/A   Mostly Cloudy
6:53 AM 70.0°F 62.1°F 76% 30.03 in 10.0 miles Calm Calm - N/A   Mostly Cloudy
7:53 AM 72.0°F 63.0°F 73% 30.03 in 10.0 miles Calm Calm - N/A   Mostly Cloudy
8:53 AM 73.9°F 61.0°F 64% 30.04 in 10.0 miles Calm Calm - N/A   Overcast
9:53 AM 75.0°F 59.0°F 57% 30.03 in 10.0 miles Calm Calm - N/A   Overcast
10:53 AM 77.0°F 61.0°F 58% 30.02 in 10.0 miles Variable 3.5 mph - N/A   Mostly Cloudy
11:53 AM 78.1°F 61.0°F 56% 30.01 in 10.0 miles West 6.9 mph - N/A   Mostly Cloudy
12:53 PM 79.0°F 60.1°F 52% 29.97 in 10.0 miles Variable 4.6 mph - N/A   Mostly Cloudy
1:53 PM 80.1°F 59.0°F 48% 29.96 in 10.0 miles Variable 3.5 mph - N/A   Mostly Cloudy
2:53 PM 79.0°F 59.0°F 50% 29.96 in 10.0 miles NW 5.8 mph - N/A   Mostly Cloudy
3:53 PM 78.1°F 59.0°F 52% 29.95 in 10.0 miles NW 5.8 mph - N/A   Overcast
4:53 PM 77.0°F 55.9°F 48% 29.95 in 10.0 miles WNW 3.5 mph - N/A   Overcast
5:53 PM 75.9°F 55.0°F 48% 29.96 in 10.0 miles WNW 3.5 mph - N/A   Overcast
6:53 PM 75.9°F 55.9°F 50% 29.97 in 10.0 miles Calm Calm - N/A   Overcast
7:53 PM 75.0°F 55.9°F 51% 29.99 in 10.0 miles Calm Calm - N/A   Overcast
8:53 PM 73.9°F 55.0°F 52% 29.98 in 10.0 miles Calm Calm - N/A   Overcast
9:53 PM 73.0°F 57.0°F 57% 29.98 in 10.0 miles Calm Calm - N/A   Overcast
10:53 PM 73.9°F 57.9°F 57% 29.97 in 10.0 miles Calm Calm - N/A   Mostly Cloudy
11:53 PM 72.0°F 59.0°F 64% 29.96 in 10.0 miles Calm Calm - N/A   Mostly Cloudy